Regional Weather Roundup
Issued by NWS Newport/Morehead, NC

Current Version | Previous Version | Text Only | Print | Product List | Glossary On
Versions: 1 2 3 4 5 6 7 8 9 10 11 12 13 14 15 16 17 18 19 20 21 22 23 24 25 26 27 28 29 30 31 32 33 34 35 36 37 38 39 40 41 42 43 44 45 46 47 48 49 50
000 ASUS42 KMHX 181925 RWRMHX WEATHER ROUNDUP FOR EASTERN NORTH CAROLINA NATIONAL WEATHER SERVICE NEWPORT/MOREHEAD CITY NC 300 PM EDT WED OCT 18 2017 NOTE: "FAIR" INDICATES FEW OR NO CLOUDS BELOW 12,000 FEET WITH NO SIGNIFICANT WEATHER AND/OR OBSTRUCTIONS TO VISIBILITY NCZ015>017-031-032-045>047-102-103-182000- NORTH COAST CITY SKY/WX TMP DP RH WIND PRES REMARKS EDENTON SUNNY 70 56 60 CALM 30.33F ELIZABETH CITY SUNNY 69 54 58 E7 30.33F KITTY HAWK CLEAR 67 53 61 NE3 30.31F MANTEO SUNNY N/A N/A N/A NE14 30.32F $$ NCZ045>047-081-094-103-104-182000- CENTRAL COAST CITY SKY/WX TMP DP RH WIND PRES REMARKS FRISCO SUNNY 71 58 63 NE10G23 30.29F $$ NCZ095-097-098-100-101-182000- SOUTHERN COAST CITY SKY/WX TMP DP RH WIND PRES REMARKS BEAUFORT SUNNY 72 56 57 NE12 30.29F CEDAR ISLAND NOT AVBL JACKSONVILLE SUNNY 73 53 49 NE9 30.29F PINEY ISLAND N/A N/A N/A N/A NE12 30.30F WILMINGTON SUNNY 75 54 47 N9 30.27F $$ NCZ011>013-027>030-043-044-078>080-089-090>093-098-182000- COASTAL PLAIN CITY SKY/WX TMP DP RH WIND PRES REMARKS AHOSKIE SUNNY 66 48 51 CALM 30.34F CLINTON SUNNY 71 51 48 N3 30.31F ELIZABETHTOWN NOT AVBL GOLDSBORO SUNNY 70 46 42 NE7 30.30F GREENVILLE SUNNY 70 48 46 E5 30.33F HAVELOCK SUNNY 71 55 56 NE10 30.31F KENANSVILLE SUNNY 72 48 43 NE3 30.31S KINSTON SUNNY 72 46 40 NE5 30.32F NEW BERN SUNNY 72 52 49 N9 30.31F RICHLANDS SUNNY 71 53 52 NE6 30.30F ROCKY MOUNT SUNNY 68 46 45 E6 30.34F WASHINGTON SUNNY 71 53 54 NE9 30.32F WHITEVILLE SUNNY 71 53 52 N5 30.28F $$ AMZ130-135-150-152-154-156-158-170-250-252-270-ANZ085-086-088-633-658-670-182000- MARINE OBSERVATIONS STATION/POSITION TIME TEMP WIND PRES WAVE SWELL AIR SEA DIR/SP/G HT/PER HT/PER (UTC) (F) (DEG/KT/KT) (MB) (FT/S) (FT/S) CHESAPEAKE LIGHT NOT AVBL 64 E VA BEACH 1850 64 68 40/ 10/ 12 1027.8 4/ 9 3/ 9 DUCK 1900 64 68 50/ 13/ 15 1026.7 2 E DUCK 1900 70 N/A 4/ 9 2/11 OREGON INLET 1900 67 64 40/ 11/ 16 1026.4 13E OREGON INLT 1848 71 N/A 5/ 8 3/ 8 HATTERAS CG 1900 67 67 40/ 12/ 18 1025.7 DIAMOND BUOY 1850 71 82 20/ 21/ 25 1024.5 7/ 9 3/ 9 CAPE LOOKOUT 1900 69 30/ 17/ 21 1025.2 BEAUFORT LAB 1900 69 69 50/ 9/ 15 1025.8 30 SE NEW RVR IN 1908 70 50/ 16/ 23 1024.7 30 SE NEW RVR IN NOT AVBL 27 SE WRIGHTSVLE 1908 71 77 70/ 17/ 21 1024.4 5 SE WRIGHTSVLE 1908 70 75 60/ 14/ 21 1024.9 225 S CAPE HAT 1850 74 80 50/ 23/ 29 1019.2 10/ 8 2/11 41 SE CHARLESTON 1900 72 80 30/ 21/ 27 1022.5 $$

USA.gov is the U.S. government's official web portal to all federal, state and local government web resources and services.